Location: ??????????
(31.2156°N, 29.9553°E)
Time: 05:09:28
(UTC+00:00)

Meteor 1-19 Rocket - Pass Details

Date: 03 March 2021
Orbit: 807 x 928 km, 81.2° (Epoch: 14 April)

Event Time Altitude Azimuth Distance (km) Brightness Sun altitude
Rises 17:03:07 0° 352° (N) 3,536 7.6 -14.3°
Reaches altitude 10° 17:05:37 10° 352° (N) 2,577 6.8 -14.8°
Maximum altitude 17:11:30 89° 268° (W) 883 4.3 -16.1°
Drops below altitude 10° 17:17:09 10° 174° (S) 2,481 6.5 -17.3°
Sets 17:19:32 0° 174° (S) 3,396 7.3 -17.8°
